Location: Lawrence Hall of Science
(37.8785°N, 122.2415°W)
Time: 03:02:05
(UTC-07:00)

ARGOS - Visible Passes

Search period start: 30 June 2015 00:00
Search period end: 10 July 2015 00:00
Orbit: 820 x 836 km, 98.7° (Epoch: 28 June)

Date Brightness Start Highest point End Pass type
(mag) Time Alt. Az. Time Alt. Az. Time Alt. Az.
30 Jun 5.1 21:07:30 10° E 21:09:39 13° ENE 21:12:05 10° NE visible
30 Jun 3.1 22:46:54 35° S 22:49:18 81° WSW 22:54:42 10° NNW visible
01 Jul 3.2 22:28:11 30° SSE 22:30:49 69° ENE 22:36:11 10° N visible
02 Jul 5.4 00:09:42 12° WSW 00:11:41 13° W 00:14:02 10° WNW visible
02 Jul 3.6 22:09:28 24° SE 22:12:23 46° ENE 22:17:32 10° N visible
02 Jul 5.0 23:50:59 17° WSW 23:52:56 20° W 23:56:46 10° NW visible
03 Jul 4.1 21:50:45 17° ESE 21:54:00 32° ENE 21:58:44 10° N visible
03 Jul 4.5 23:32:16 24° SW 23:34:14 30° W 23:38:54 10° NW visible
04 Jul 4.6 21:32:02 11° ESE 21:35:39 22° ENE 21:39:44 10° NNE visible
04 Jul 3.9 23:13:34 31° SSW 23:15:37 45° W 23:20:46 10° NNW visible
05 Jul 5.0 21:14:30 10° E 21:17:19 15° ENE 21:20:24 10° NNE visible
05 Jul 3.3 22:54:51 36° S 22:57:04 68° WSW 23:02:26 10° NNW visible
06 Jul 3.1 22:36:08 34° SSE 22:38:35 81° ENE 22:43:58 10° N visible
07 Jul 5.6 00:18:05 10° WSW 00:19:35 11° W 00:20:41 10° WNW visible
07 Jul 3.4 22:17:26 27° SE 22:20:08 55° ENE 22:25:22 10° N visible
07 Jul 5.2 23:58:57 15° WSW 00:00:48 17° W 00:04:07 10° NW visible
08 Jul 3.9 21:58:43 20° ESE 22:01:43 37° ENE 22:06:38 10° N visible
08 Jul 4.7 23:40:15 22° SW 23:42:05 26° W 23:46:26 10° NW visible
09 Jul 4.4 21:40:01 14° ESE 21:43:21 26° ENE 21:47:44 10° NNE visible
09 Jul 4.2 23:21:33 29° SW 23:23:26 38° W 23:28:24 10° NNW visible
